Location: Chiroubles
(46.1812°N, 4.6660°E)
Time: 07:10:20
(UTC+00:00)

Transit 4A - Pass Details

Date: 02 December 2020
Orbit: 864 x 981 km, 66.8° (Epoch: 17 January)

Event Time Altitude Azimuth Distance (km) Brightness Sun altitude
Rises 17:18:37 0° 313° (NW) 3,669 11.4 -13.7°
Reaches altitude 10° 17:22:15 10° 293° (WNW) 2,700 11.1 -14.3°
Maximum altitude 17:25:49 16° 258° (WSW) 2,275 11.1 -14.9°
Drops below altitude 10° 17:29:20 10° 223° (SW) 2,647 11.2 -15.5°
Sets 17:32:52 0° 202° (SSW) 3,560 11.5 -16.1°
